STARLINK-35108

Last updated on Mon Oct 20 2025 00:02:06 GMT+0000 (Coordinated Universal Time)

1 65738U 25216E 25292.25002315 -.01981326 00000+0 -51243-1 0 9990 2 65738 53.1594 272.2551 0000830 99.5100 304.9337 15.42038676 4978
UTC large
Height (km)
Speed (km/s)
/
Latitude / Longitude
Inclination (degrees)
Orbital Period (minutes)
Azimuth
Elevation
Range (km)
Doppler Factor

Next 0 passes for location: London (51.5072 / 0.1276)

Sorry there are no passes over London.